SCP
0 0 0 0 0 0 -0 0 0 0 0 0 0 0 0 0 0 0 0 0 0 0 0 0 0 0 0 0 0 0 0 0 0 0 0 0 0 0 0 0 0 0 0 0
0 0 0 0 0 0 0 0 0 0 0 0 0 0 0 0 0 0 0 0 0 0 0 0 0 0 0 0 0 0 0 0 0 0 0 0 0 0 0 0 0 0 0 0
0 0 0 0 0 0 0 0 0 0 0 0 0 0 0 0 0 0 0 0 0 0 0 0 0 0 0 0 0 0 0 0 0 0 0 0 0 0 0 0 0 0 0 0
0 0 0 0 0 0 0 0 0 0 0 0 0 0 0 0 0 0 0 0 0 0 0 0 0 0 0 0 0 0 0 0 0 0 0 0 0 0 0 0 0 0 0 0
0 0 0 0 0 0 0 0 0 0 0 0 0 0 0 0 0 0 0 0 0 0 0 0 0 0 0 0 0 0 0 0 0 0 0 0 0 0 0 0 0 0 0 0
0 0 0 0 0 0 0 0 0 0 0 0 0 0 0 0 0 0 0 0 0 0 0 0 0 0 0 0 0 0 0 0 0 0 0 0 0 0 0 0 0 0 0 0
0 0 0 0 0 0 0 0 0 0 0 0 0 0 0 0 0 0 0 0 0 0 0 0 0 0 0 0 0 0 0 0 0 0 0 0 0 0 0 0 0 0 0 0
0 0 0 0 0 0 0 0 0 0 0 0 0 0 0 0 0 0 0 0 0 0 0 0 0 0 0 0 0 0 0 0 0 0 0 0 0 0 0 0 0 0 0 0
0 0 0 0 0 0 0 0 0 0 0 0 0 0 0 0 0 0 0 0 0 0 0 0 0 0 0 0 0 0 0 0 0 0 0 0 0 0 0 0 0 0 0 0
0 0 0 0 0 0 0 0 0 0 0 0 0 0 0 0 0 0 0 0 0 0 0 0 0 0 0 0 0 0 0 0 0 0 0 0 0 0 0 0 0 0 0 0
0 0 -0 0 -0 0 0 0 0 0 0 0 0 -0 0 0 0 0 0 0 0 0 0 0 0 0 0 0 0 0 0 0 0 0 0 0 0 0 0 0 0 0 0 0
0 0 -0 0 -0 0 0 0 0 0 0 0 0 0 0 0 0 0 0 0 0 0 0 0 0 0 0 0 0 0 0 0 0 0 0 0 0 -0 0 0 0 0 0 0
0 0 0 -0 -0 -0 0 0 0 0 0 -0 0 0 0 -0 0 0 0 0 0 0 0 0 0 0 0 0 0 0 0 0 0 0 0 0 0 0 0 0 0 0 0 0
0 0 0 0 -0 -0 0 0 0 0 0 -0 0 -0 0 0 0 0 0 0 0 0 0 0 0 0 0 0 0 0 0 0 0 0 0 0 0 0 -0 0 0 0 0 0
0 0 0 0 0 0 0 0 -0 -0 -0 0 0 -0 -0 0 -0 0 0 0 0 0 0 0 0 0 0 0 0 0 0 0 0 0 0 0 0 1 0 0 0 0 0 -0
0 0 0 0 0 0 0 0 0 0 0 0 0 0 0 0 0 0 0 0 0 0 0 0 0 0 0 0 0 0 0 0 0 1 0 0 1 1 1 1 1 0 0 0
0 0 0 0 0 0 0 -0 -0 -0 -0 0 0 0 0 0 0 0 0 0 0 0 0 0 0 0 0 0 0 0 0 0 0 0 0 0 1 1 1 1 1 0 0 0
0 0 0 0 0 0 0 0 -0 0 0 0 0 0 0 0 0 0 0 0 0 0 0 0 0 0 0 -0 -0 0 0 0 0 0 0 0 0 0 1 0 0 0 0 0
0 0 0 0 0 0 0 0 0 0 0 -0 -0 0 -0 -0 -0 -0 -0 0 0 0 -0 -0 0 0 0 -0 0 0 0 0 0 0 0 0 0 0 0 0 0 0 0 0
0 0 0 0 0 0 0 0 0 0 0 0 0 0 -0 -0 -0 -0 -0 0 0 -0 -0 -0 -0 -0 -0 -0 0 0 0 0 0 0 0 0 0 0 0 0 0 0 0 0
0 0 0 0 0 0 0 0 0 0 0 0 0 0 0 -0 -0 -0 -0 -0 -0 -0 -0 -0 -0 -0 -0 -0 -0 0 0 0 0 0 0 0 0 0 0 0 0 0 0 0
0 0 0 0 0 0 0 0 0 0 0 0 0 0 -0 -0 -0 -0 -0 -0 -0 0 -0 -0 -0 -0 0 0 0 0 0 0 0 0 0 0 0 0 0 0 0 0 0 0
0 0 0 0 0 0 0 0 0 0 0 0 0 0 0 0 -0 -0 -0 0 0 0 0 0 0 0 0 0 0 0 0 0 0 0 0 0 0 0 0 0 0 0 0 0
0 0 0 0 0 0 0 0 0 0 0 0 0 0 0 0 0 0 0 0 0 0 0 0 0 0 0 0 0 0 0 0 0 0 0 0 0 0 0 0 0 0 0 0
0 0 0 0 0 0 0 0 0 0 0 0 0 0 0 0 0 0 0 0 0 0 0 0 0 0 0 0 0 0 0 0 0 0 0 0 0 0 0 0 0 0 0 0
0 0 0 0 0 0 0 0 0 0 0 0 0 0 0 0 0 0 0 0 0 0 0 0 0 0 0 0 -0 -0 0 0 0 0 0 0 0 0 0 0 0 0 0 0
0 0 0 0 0 0 0 0 0 0 0 0 0 0 0 0 0 0 0 0 0 0 0 0 0 0 0 0 0 -0 0 0 0 0 0 0 0 0 0 0 0 0 0 0
Wind_Speed_500mb
40 37 38 41 42 47 31 16 9 7 8 16 20 22 21 11 31 50 33 15 22 28 26 26 32 40 31 37 45 54 47 28 25 43 42 49 47 45 48 31 42 24 30 29
35 33 34 35 37 37 30 22 19 13 7 13 20 23 20 26 35 34 35 34 24 17 23 18 28 25 3 11 42 48 44 26 29 37 26 23 39 50 48 46 39 46 36 35
37 35 34 29 32 30 20 15 8 7 8 8 14 15 26 24 24 32 46 37 39 34 30 23 8 20 9 15 40 17 37 40 43 37 42 33 37 40 43 44 36 40 38 37
35 35 32 26 27 23 11 9 2 7 5 5 14 14 16 21 21 22 21 29 42 37 37 35 29 22 11 12 11 22 33 43 44 48 44 37 42 44 40 49 49 45 44 51
35 35 28 22 21 17 11 13 10 5 25 20 20 11 20 14 7 14 17 17 24 27 37 33 33 33 24 17 20 27 18 22 35 43 42 41 39 37 43 52 50 48 48 41
35 31 28 19 19 15 12 10 15 14 14 14 14 15 11 12 14 12 12 11 26 15 6 26 34 33 30 12 11 16 15 20 21 34 42 42 47 62 58 51 41 41 44 34
34 31 27 19 19 20 20 12 12 11 16 14 13 13 20 27 26 25 28 31 23 11 37 40 38 43 43 34 26 18 7 14 16 25 30 50 42 47 52 50 46 44 43 38
38 34 28 25 20 23 24 22 16 8 13 20 18 24 22 30 31 34 36 30 33 26 31 17 21 22 37 49 41 34 22 18 18 24 35 27 48 8 35 40 51 50 47 42
43 39 35 29 25 26 30 27 25 15 7 16 23 21 14 17 20 21 32 12 27 21 16 20 37 35 32 33 39 46 37 30 23 22 43 57 36 27 32 32 39 38 47 45
45 43 38 35 31 26 29 29 26 17 12 21 34 22 24 26 15 16 22 10 10 15 20 23 26 33 40 38 44 36 41 36 43 34 34 27 27 33 32 39 18 40 47 54
41 37 28 36 36 34 31 27 27 30 26 34 34 40 39 30 24 15 9 17 7 14 19 16 24 26 32 34 42 47 37 34 38 36 44 50 3 11 32 27 31 13 15 22
30 25 29 30 31 29 34 31 24 25 29 32 28 34 37 53 49 40 26 28 9 10 8 6 11 15 17 26 34 42 37 33 30 37 34 9 65 45 30 9 7 7 10 13
28 29 30 27 26 28 36 30 22 19 24 44 54 56 47 48 54 52 46 38 30 12 10 7 8 11 14 17 30 34 38 37 35 31 41 37 39 43 30 22 19 14 11 21
23 25 21 14 11 7 21 34 24 24 15 14 29 25 35 37 32 43 48 50 27 13 4 5 6 9 20 19 15 21 29 17 37 35 29 35 38 35 29 20 17 23 29 37
22 20 17 10 2 6 11 20 25 26 21 15 37 49 42 41 52 42 42 45 50 36 4 5 6 12 13 18 25 26 34 29 23 26 36 35 43 44 30 31 34 42 59 60
24 19 15 12 9 9 11 12 20 29 28 12 8 16 32 24 29 41 61 50 41 42 18 12 14 20 7 8 14 31 32 21 32 23 28 40 19 34 37 42 42 45 52 72
33 25 19 17 14 13 15 9 3 10 11 9 7 9 9 15 28 24 41 41 24 19 14 14 13 9 12 6 21 35 12 34 37 41 26 22 40 47 47 55 57 56 56 57
35 25 22 18 20 20 25 24 37 29 11 11 6 8 9 16 16 21 28 29 28 29 13 14 19 18 18 12 29 44 51 51 42 36 36 25 35 50 56 61 67 66 57 54
35 21 15 14 11 12 14 18 20 23 19 7 8 5 4 13 24 16 27 24 9 13 12 9 11 10 13 22 31 35 39 21 16 46 36 50 56 62 65 69 63 60 51 41
26 11 5 8 9 16 19 7 10 24 14 14 8 9 6 11 19 5 9 12 7 9 14 13 9 17 41 39 35 35 37 31 40 53 64 69 64 60 55 51 50 48 42 38
3 3 8 13 17 11 9 7 10 14 8 15 14 27 9 13 8 8 18 4 5 6 7 9 5 7 13 17 26 24 28 28 46 53 59 58 59 57 56 51 47 43 37 33
10 14 14 8 4 6 6 5 5 8 6 7 7 11 23 11 11 7 11 6 5 8 9 4 6 7 33 18 22 30 30 42 59 58 57 57 56 51 51 46 42 36 32 29
5 4 3 3 2 5 5 6 5 5 7 10 13 10 13 15 11 8 5 8 6 12 5 4 5 35 18 22 44 53 56 66 67 62 58 56 52 45 42 38 33 30 25 20
6 10 8 8 6 4 8 9 12 17 21 24 19 13 4 2 5 8 5 7 5 3 6 4 6 36 21 50 68 67 61 58 58 58 53 45 41 38 32 29 23 23 20 16
10 10 11 9 25 41 33 31 19 19 21 21 12 11 10 7 7 2 10 9 10 10 7 5 34 43 41 48 47 49 53 46 38 42 39 37 32 30 28 24 23 22 19 17
10 11 11 28 19 28 38 47 35 32 25 11 9 7 6 14 7 13 15 7 10 6 4 19 28 29 38 36 41 40 42 43 42 42 31 30 33 34 31 28 25 23 20 19
11 11 20 32 22 27 38 40 46 35 21 10 7 13 13 9 10 9 8 7 4 14 22 28 24 26 28 28 36 35 35 40 40 37 35 36 34 30 29 28 23 22 22 21
Wind_Direction_500mb
320 316 324 331 331 335 353 322 276 301 343 247 233 241 235 308 265 243 245 267 271 265 229 237 232 217 212 208 197 203 215 210 218 206 218 224 220 216 214 226 224 249 259 251
326 320 320 327 331 336 339 308 284 285 246 256 233 236 271 256 265 248 250 231 232 239 253 245 239 219 353 235 217 203 199 224 211 230 185 213 233 218 224 226 238 228 229 235
322 322 321 317 324 330 341 304 288 192 243 275 296 306 269 261 261 260 265 263 252 248 244 241 238 221 178 221 226 166 221 216 225 214 217 195 211 224 225 236 227 234 236 238
323 321 315 310 313 320 334 261 360 338 291 168 314 273 297 276 271 264 297 241 246 247 236 240 219 242 200 179 117 198 213 221 227 232 254 215 204 210 206 222 229 230 232 233
325 325 316 301 299 304 259 286 299 290 283 281 270 221 252 266 300 286 247 286 359 289 255 244 229 236 235 216 182 193 213 222 231 227 229 244 235 230 220 218 228 238 245 252
323 320 317 294 287 278 263 256 268 267 276 267 270 266 248 285 316 260 282 1 323 275 316 333 301 302 298 316 300 181 216 218 206 225 225 231 241 230 227 233 230 233 238 241
319 314 308 297 275 269 260 260 274 281 273 268 278 289 284 278 277 278 285 300 291 322 320 303 263 255 254 251 235 243 228 219 217 224 213 223 249 227 226 240 236 233 241 240
311 307 305 286 273 264 257 258 239 233 270 282 278 267 285 285 272 261 269 281 282 303 302 263 222 210 230 235 234 226 220 252 221 222 223 233 246 202 226 220 234 232 234 231
304 293 289 285 273 262 257 251 242 232 263 255 278 268 271 297 297 280 254 269 289 277 262 239 227 215 211 221 227 226 223 222 246 212 236 234 234 236 214 231 240 229 228 230
305 298 284 269 263 256 255 252 240 228 249 264 263 254 287 296 256 273 281 329 290 231 252 242 226 226 218 221 211 209 204 212 221 227 246 250 248 244 195 222 237 223 228 223
310 298 285 281 255 249 249 250 236 225 257 266 255 255 262 251 251 270 321 300 198 242 251 252 233 237 224 223 226 210 202 199 215 222 228 232 219 185 217 232 236 253 254 257
330 317 307 293 269 256 235 243 242 239 240 258 267 260 253 248 253 264 288 282 313 327 283 337 301 267 245 223 219 232 205 210 218 209 219 309 210 230 217 258 257 250 255 234
337 336 322 303 279 230 231 231 236 236 265 278 258 255 259 253 241 244 252 245 256 250 331 331 298 280 293 231 235 231 223 233 230 237 211 219 224 233 250 261 254 248 206 154
338 344 349 1 32 199 214 228 234 232 264 276 280 272 255 248 244 237 233 235 237 255 46 2 285 289 346 278 306 289 249 243 226 244 245 206 215 227 237 232 192 157 144 142
341 338 340 337 330 220 225 239 239 236 242 291 296 292 284 247 237 226 221 220 224 226 150 253 251 281 299 281 279 263 254 244 240 235 214 213 213 208 189 163 159 153 142 136
334 331 322 303 289 265 253 265 231 230 234 259 289 317 271 266 218 222 217 214 215 218 205 220 250 253 277 277 270 261 261 268 276 278 306 224 229 179 167 152 149 146 142 134
331 313 300 295 278 252 235 306 164 191 253 256 269 245 277 270 215 190 191 201 197 195 215 220 246 256 212 264 253 265 240 305 287 257 257 209 174 164 156 144 139 136 133 128
326 306 284 273 279 278 267 262 255 253 249 235 263 273 270 200 174 154 168 175 183 200 214 231 226 205 202 247 257 256 277 285 273 226 201 187 159 147 146 142 137 133 129 125
325 293 279 274 236 233 223 253 231 227 221 257 233 257 299 196 201 160 175 170 180 212 209 230 218 200 218 240 265 292 287 259 227 180 158 147 140 138 137 135 132 125 124 125
318 291 173 231 213 245 280 244 190 196 212 230 249 223 258 305 176 151 165 175 224 211 207 196 234 246 250 241 268 271 260 241 188 162 151 141 134 132 132 126 120 119 123 125
293 224 226 244 274 272 215 228 217 201 222 211 231 203 214 241 201 189 200 196 217 228 187 218 246 243 246 241 255 210 197 166 143 138 135 132 125 120 115 111 109 110 112 109
306 280 298 308 310 259 261 220 223 228 259 252 234 215 208 238 159 172 187 229 222 233 163 217 279 263 278 195 177 169 148 135 125 120 114 109 106 107 106 106 105 103 102 104
12 1 304 350 29 305 279 311 252 251 233 248 261 235 219 179 188 223 171 221 221 168 154 182 291 285 111 156 127 107 104 101 98 97 96 95 96 97 99 103 104 105 104 103
356 334 349 354 3 294 252 256 263 268 223 257 310 306 297 255 188 208 188 222 162 67 52 45 269 25 87 87 103 106 97 91 97 100 97 93 93 93 93 96 100 105 105 106
11 4 5 351 317 312 313 321 299 297 304 322 284 237 231 211 234 205 4 56 49 30 2 356 18 28 76 99 90 97 92 89 87 91 90 89 93 97 96 95 97 99 100 97
25 33 338 323 317 334 342 343 343 350 332 290 243 284 9 35 22 19 29 45 18 320 342 37 34 32 55 84 103 96 97 93 86 82 92 101 96 94 93 91 90 92 95 100
21 349 323 338 309 320 326 347 349 349 359 10 19 34 20 39 20 33 16 347 339 358 28 43 42 44 47 78 87 91 90 94 94 96 93 92 95 97 95 93 92 92 92 94
Wind_Speed_850mb
40 37 38 41 42 47 31 16 9 7 8 16 20 22 21 11 31 50 33 15 22 28 26 26 32 40 31 37 45 54 47 28 25 43 42 49 47 45 48 31 42 24 30 29
35 33 34 35 37 37 30 22 19 13 7 13 20 23 20 26 35 34 35 34 24 17 23 18 28 25 3 11 42 48 44 26 29 37 26 23 39 50 48 46 39 46 36 35
37 35 34 29 32 30 20 15 8 7 8 8 14 15 26 24 24 32 46 37 39 34 30 23 8 20 9 15 40 17 37 40 43 37 42 33 37 40 43 44 36 40 38 37
35 35 32 26 27 23 11 9 2 7 5 5 14 14 16 21 21 22 21 29 42 37 37 35 29 22 11 12 11 22 33 43 44 48 44 37 42 44 40 49 49 45 44 51
35 35 28 22 21 17 11 13 10 5 25 20 20 11 20 14 7 14 17 17 24 27 37 33 33 33 24 17 20 27 18 22 35 43 42 41 39 37 43 52 50 48 48 41
35 31 28 19 19 15 12 10 15 14 14 14 14 15 11 12 14 12 12 11 26 15 6 26 34 33 30 12 11 16 15 20 21 34 42 42 47 62 58 51 41 41 44 34
34 31 27 19 19 20 20 12 12 11 16 14 13 13 20 27 26 25 28 31 23 11 37 40 38 43 43 34 26 18 7 14 16 25 30 50 42 47 52 50 46 44 43 38
38 34 28 25 20 23 24 22 16 8 13 20 18 24 22 30 31 34 36 30 33 26 31 17 21 22 37 49 41 34 22 18 18 24 35 27 48 8 35 40 51 50 47 42
43 39 35 29 25 26 30 27 25 15 7 16 23 21 14 17 20 21 32 12 27 21 16 20 37 35 32 33 39 46 37 30 23 22 43 57 36 27 32 32 39 38 47 45
45 43 38 35 31 26 29 29 26 17 12 21 34 22 24 26 15 16 22 10 10 15 20 23 26 33 40 38 44 36 41 36 43 34 34 27 27 33 32 39 18 40 47 54
41 37 28 36 36 34 31 27 27 30 26 34 34 40 39 30 24 15 9 17 7 14 19 16 24 26 32 34 42 47 37 34 38 36 44 50 3 11 32 27 31 13 15 22
30 25 29 30 31 29 34 31 24 25 29 32 28 34 37 53 49 40 26 28 9 10 8 6 11 15 17 26 34 42 37 33 30 37 34 9 65 45 30 9 7 7 10 13
28 29 30 27 26 28 36 30 22 19 24 44 54 56 47 48 54 52 46 38 30 12 10 7 8 11 14 17 30 34 38 37 35 31 41 37 39 43 30 22 19 14 11 21
23 25 21 14 11 7 21 34 24 24 15 14 29 25 35 37 32 43 48 50 27 13 4 5 6 9 20 19 15 21 29 17 37 35 29 35 38 35 29 20 17 23 29 37
22 20 17 10 2 6 11 20 25 26 21 15 37 49 42 41 52 42 42 45 50 36 4 5 6 12 13 18 25 26 34 29 23 26 36 35 43 44 30 31 34 42 59 60
24 19 15 12 9 9 11 12 20 29 28 12 8 16 32 24 29 41 61 50 41 42 18 12 14 20 7 8 14 31 32 21 32 23 28 40 19 34 37 42 42 45 52 72
33 25 19 17 14 13 15 9 3 10 11 9 7 9 9 15 28 24 41 41 24 19 14 14 13 9 12 6 21 35 12 34 37 41 26 22 40 47 47 55 57 56 56 57
35 25 22 18 20 20 25 24 37 29 11 11 6 8 9 16 16 21 28 29 28 29 13 14 19 18 18 12 29 44 51 51 42 36 36 25 35 50 56 61 67 66 57 54
35 21 15 14 11 12 14 18 20 23 19 7 8 5 4 13 24 16 27 24 9 13 12 9 11 10 13 22 31 35 39 21 16 46 36 50 56 62 65 69 63 60 51 41
26 11 5 8 9 16 19 7 10 24 14 14 8 9 6 11 19 5 9 12 7 9 14 13 9 17 41 39 35 35 37 31 40 53 64 69 64 60 55 51 50 48 42 38
3 3 8 13 17 11 9 7 10 14 8 15 14 27 9 13 8 8 18 4 5 6 7 9 5 7 13 17 26 24 28 28 46 53 59 58 59 57 56 51 47 43 37 33
10 14 14 8 4 6 6 5 5 8 6 7 7 11 23 11 11 7 11 6 5 8 9 4 6 7 33 18 22 30 30 42 59 58 57 57 56 51 51 46 42 36 32 29
5 4 3 3 2 5 5 6 5 5 7 10 13 10 13 15 11 8 5 8 6 12 5 4 5 35 18 22 44 53 56 66 67 62 58 56 52 45 42 38 33 30 25 20
6 10 8 8 6 4 8 9 12 17 21 24 19 13 4 2 5 8 5 7 5 3 6 4 6 36 21 50 68 67 61 58 58 58 53 45 41 38 32 29 23 23 20 16
10 10 11 9 25 41 33 31 19 19 21 21 12 11 10 7 7 2 10 9 10 10 7 5 34 43 41 48 47 49 53 46 38 42 39 37 32 30 28 24 23 22 19 17
10 11 11 28 19 28 38 47 35 32 25 11 9 7 6 14 7 13 15 7 10 6 4 19 28 29 38 36 41 40 42 43 42 42 31 30 33 34 31 28 25 23 20 19
11 11 20 32 22 27 38 40 46 35 21 10 7 13 13 9 10 9 8 7 4 14 22 28 24 26 28 28 36 35 35 40 40 37 35 36 34 30 29 28 23 22 22 21
Wind_Direction_850mb
320 316 324 331 331 335 353 322 276 301 343 247 233 241 235 308 265 243 245 267 271 265 229 237 232 217 212 208 197 203 215 210 218 206 218 224 220 216 214 226 224 249 259 251
326 320 320 327 331 336 339 308 284 285 246 256 233 236 271 256 265 248 250 231 232 239 253 245 239 219 353 235 217 203 199 224 211 230 185 213 233 218 224 226 238 228 229 235
322 322 321 317 324 330 341 304 288 192 243 275 296 306 269 261 261 260 265 263 252 248 244 241 238 221 178 221 226 166 221 216 225 214 217 195 211 224 225 236 227 234 236 238
323 321 315 310 313 320 334 261 360 338 291 168 314 273 297 276 271 264 297 241 246 247 236 240 219 242 200 179 117 198 213 221 227 232 254 215 204 210 206 222 229 230 232 233
325 325 316 301 299 304 259 286 299 290 283 281 270 221 252 266 300 286 247 286 359 289 255 244 229 236 235 216 182 193 213 222 231 227 229 244 235 230 220 218 228 238 245 252
323 320 317 294 287 278 263 256 268 267 276 267 270 266 248 285 316 260 282 1 323 275 316 333 301 302 298 316 300 181 216 218 206 225 225 231 241 230 227 233 230 233 238 241
319 314 308 297 275 269 260 260 274 281 273 268 278 289 284 278 277 278 285 300 291 322 320 303 263 255 254 251 235 243 228 219 217 224 213 223 249 227 226 240 236 233 241 240
311 307 305 286 273 264 257 258 239 233 270 282 278 267 285 285 272 261 269 281 282 303 302 263 222 210 230 235 234 226 220 252 221 222 223 233 246 202 226 220 234 232 234 231
304 293 289 285 273 262 257 251 242 232 263 255 278 268 271 297 297 280 254 269 289 277 262 239 227 215 211 221 227 226 223 222 246 212 236 234 234 236 214 231 240 229 228 230
305 298 284 269 263 256 255 252 240 228 249 264 263 254 287 296 256 273 281 329 290 231 252 242 226 226 218 221 211 209 204 212 221 227 246 250 248 244 195 222 237 223 228 223
310 298 285 281 255 249 249 250 236 225 257 266 255 255 262 251 251 270 321 300 198 242 251 252 233 237 224 223 226 210 202 199 215 222 228 232 219 185 217 232 236 253 254 257
330 317 307 293 269 256 235 243 242 239 240 258 267 260 253 248 253 264 288 282 313 327 283 337 301 267 245 223 219 232 205 210 218 209 219 309 210 230 217 258 257 250 255 234
337 336 322 303 279 230 231 231 236 236 265 278 258 255 259 253 241 244 252 245 256 250 331 331 298 280 293 231 235 231 223 233 230 237 211 219 224 233 250 261 254 248 206 154
338 344 349 1 32 199 214 228 234 232 264 276 280 272 255 248 244 237 233 235 237 255 46 2 285 289 346 278 306 289 249 243 226 244 245 206 215 227 237 232 192 157 144 142
341 338 340 337 330 220 225 239 239 236 242 291 296 292 284 247 237 226 221 220 224 226 150 253 251 281 299 281 279 263 254 244 240 235 214 213 213 208 189 163 159 153 142 136
334 331 322 303 289 265 253 265 231 230 234 259 289 317 271 266 218 222 217 214 215 218 205 220 250 253 277 277 270 261 261 268 276 278 306 224 229 179 167 152 149 146 142 134
331 313 300 295 278 252 235 306 164 191 253 256 269 245 277 270 215 190 191 201 197 195 215 220 246 256 212 264 253 265 240 305 287 257 257 209 174 164 156 144 139 136 133 128
326 306 284 273 279 278 267 262 255 253 249 235 263 273 270 200 174 154 168 175 183 200 214 231 226 205 202 247 257 256 277 285 273 226 201 187 159 147 146 142 137 133 129 125
325 293 279 274 236 233 223 253 231 227 221 257 233 257 299 196 201 160 175 170 180 212 209 230 218 200 218 240 265 292 287 259 227 180 158 147 140 138 137 135 132 125 124 125
318 291 173 231 213 245 280 244 190 196 212 230 249 223 258 305 176 151 165 175 224 211 207 196 234 246 250 241 268 271 260 241 188 162 151 141 134 132 132 126 120 119 123 125
293 224 226 244 274 272 215 228 217 201 222 211 231 203 214 241 201 189 200 196 217 228 187 218 246 243 246 241 255 210 197 166 143 138 135 132 125 120 115 111 109 110 112 109
306 280 298 308 310 259 261 220 223 228 259 252 234 215 208 238 159 172 187 229 222 233 163 217 279 263 278 195 177 169 148 135 125 120 114 109 106 107 106 106 105 103 102 104
12 1 304 350 29 305 279 311 252 251 233 248 261 235 219 179 188 223 171 221 221 168 154 182 291 285 111 156 127 107 104 101 98 97 96 95 96 97 99 103 104 105 104 103
356 334 349 354 3 294 252 256 263 268 223 257 310 306 297 255 188 208 188 222 162 67 52 45 269 25 87 87 103 106 97 91 97 100 97 93 93 93 93 96 100 105 105 106
11 4 5 351 317 312 313 321 299 297 304 322 284 237 231 211 234 205 4 56 49 30 2 356 18 28 76 99 90 97 92 89 87 91 90 89 93 97 96 95 97 99 100 97
25 33 338 323 317 334 342 343 343 350 332 290 243 284 9 35 22 19 29 45 18 320 342 37 34 32 55 84 103 96 97 93 86 82 92 101 96 94 93 91 90 92 95 100
21 349 323 338 309 320 326 347 349 349 359 10 19 34 20 39 20 33 16 347 339 358 28 43 42 44 47 78 87 91 90 94 94 96 93 92 95 97 95 93 92 92 92 94